Regional Weather Roundup
Issued by NWS State College, PA

Home | Current Version | Previous Version | Graphics & Text | Print | Product List | Glossary Off
Versions: 1 2 3 4 5 6 7 8 9 10 11 12 13 14 15 16 17 18 19 20 21 22 23 24 25 26 27 28 29 30 31 32 33 34 35 36 37 38 39 40 41 42 43 44 45 46 47 48 49 50

000
ASUS41 KCTP 290503
RWRCTP

REGIONAL WEATHER ROUNDUP
NATIONAL WEATHER SERVICE STATE COLLEGE PA
1200 AM EST MON DEC 29 2014

Note: "fair" indicates few or no clouds below 12,000 feet with no
significant weather and/or obstructions to visibility.

* = STATION THAT DOES NOT REPORT PRECIPITATION /E.G. RAIN...SNOW...ETC/
    THUNDER OR FOG.

PAZ002>004-007>009-013>016-020>023-029>032-290600-
WESTERN PENNSYLVANIA

CITY           SKY/WX    TMP DP  RH WIND       PRES   REMARKS
ERIE           PTCLDY    34  22  61 NW9       30.16S
MEADVILLE      MOCLDY    31  28  89 W3        30.13R
FRANKLIN*      CLOUDY    30  27  86 W6        30.14S
NEW CASTLE       N/A     32  29  89 CALM      30.17S
BEAVER COUNTY  NOT AVBL
BUTLER*        CLOUDY    32  28  86 CALM      30.16S
PITTSBURGH INT CLOUDY    35  29  78 N7        30.15S
PITTSBURGH     CLOUDY    34  27  75 NW3       30.14R
INDIANA*       CLOUDY    34  30  86 CALM      30.17R
LATROBE        CLOUDY    34  32  93 CALM      30.17R
WASHINGTON CO* NOT AVBL
$$

PAZ004>006-010>012-017>019-024>028-033>037-041-042-045-046-049>053-290600-
CENTRAL PENNSYLVANIA

CITY           SKY/WX    TMP DP  RH WIND       PRES   REMARKS
BRADFORD       FLURRIES  30  24  78 W5        30.06S
DUBOIS         CLOUDY    31  28  89 W8        30.10R
CLEARFIELD     CLOUDY    31  25  78 W3        30.12S
JOHNSTOWN      CLOUDY    31  26  82 NW7       30.08R
ALTOONA        CLOUDY    35  28  75 NW6       30.11S
STATE COLLEGE  CLOUDY    34  24  68 NW5       30.12S
WILLIAMSPORT   CLOUDY    36  25  64 W5        30.12R
SELINSGROVE    CLOUDY    39  26  59 NW5       30.13R
FT INDIANTOWN  CLOUDY    41  27  58 VRB3      30.12R
CAPITAL CITY   CLOUDY    43  28  55 NW8       30.12R
HARRISBURG     CLOUDY    42  29  59 NW9       30.11R
YORK           CLOUDY    41  31  67 CALM      30.11R
$$

PAZ038>040-043-044-047-048-054-055-060>062-067>071-290600-
EASTERN PENNSYLVANIA

CITY           SKY/WX    TMP DP  RH WIND       PRES   REMARKS
SCRANTON       CLOUDY    35  23  61 W10       30.09R
MOUNT POCONO   CLOUDY    32  23  69 NW12G20   30.02R
ALLENTOWN      CLOUDY    41  29  62 N7        30.09S
QUAKERTOWN*    CLOUDY    41  32  70 N6        30.09S
READING        CLOUDY    42  30  62 NW13      30.09R
LANCASTER      CLOUDY    40  31  70 NW6       30.10R
COATESVILLE    CLOUDY    43  34  70 NW7       30.09R
POTTSTOWN      CLOUDY    42  31  64 NW6       30.10R
BLUE BELL      CLOUDY    45  34  65 NW3       30.07S
DOYLESTOWN     CLOUDY    40  32  73 N8        30.07R
WILLOW GROVE   NOT AVBL
NORTH PHILA    CLOUDY    47  31  53 N8        30.09R
PHILADELPHIA   CLOUDY    48  37  65 NW12      30.10R
$$



USA.gov is the U.S. government's official web portal to all federal, state and local government web resources and services.